sat.trackr.live / text

‹ back to catalog

STARLINK-6220

NORAD 56482 · 2023-064AL

PAYLOAD ACTIVE UNKNOWN

§ Identity

Operator
Country
US
Launch date
2023-05-10
Launch site
AFWTR
Launch vehicle
Mass (kg)
RCS (m²)

Purposes: comms

External: N2YO · Heavens-Above · Gunter

§ Orbital elements

Epoch: 2026-09-20T22:00:03.000096Z

Period
95.71 min
Inclination
70.0003°
Eccentricity
0.0004328
Mean motion
15.04470343 rev/d
Perigee alt
550.1 km
Apogee alt
556.1 km
Semi-major
6,931.3 km
B*
2.1327e-5
RAAN
352.0919°
Arg perigee
257.5949°
Mean anomaly
175.4491°
Rev number
576

§ Raw data

STARLINK-62201 56482U 23064AL  26263.91670139  .00000200  00000+0  21327-4 0  99952 56482  70.0003 352.0919 0004328 257.5949 175.4491 15.04470343  5764

JSON: /api/v1/satellites/56482 · /tle

For live sub-satellite position, see the globe view (requires WebGL).

§ Visibility from observer

Set your observer location to see the next 7 days of passes ≥ 10°. The values pass through the URL so the page stays shareable.

No JS? Fill the form by hand. The geolocation button needs JavaScript.